Total_Precipitation_Accumulation
0.00 0.00 0.00 0.00 0.00 0.00 0.00 0.00 0.00 0.00 0.00 0.00 0.00 0.00 0.00 0.00 0.00 0.00 0.00 0.04 0.11 0.36 0.23 0.07 0.07 0.01 0.05 0.06 0.00 0.00 0.00 0.03 0.03 0.02 0.08 0.14 0.00 0.02 0.11 0.16 0.06 0.00 0.00 0.00
0.00 0.00 0.00 0.00 0.00 0.00 0.00 0.00 0.00 0.00 0.00 0.00 0.00 0.00 0.00 0.01 0.00 0.02 0.02 0.01 0.10 0.74 0.38 0.04 0.06 0.01 0.01 0.05 0.00 0.00 0.00 0.00 0.01 0.01 0.04 0.04 0.04 0.02 0.06 0.13 0.14 0.01 0.00 0.00
0.00 0.00 0.00 0.00 0.00 0.00 0.00 0.00 0.00 0.00 0.00 0.00 0.00 0.00 0.07 0.08 0.06 0.01 0.02 0.03 0.02 0.19 0.45 0.16 0.07 0.05 0.00 0.01 0.01 0.01 0.00 0.00 0.01 0.10 0.18 0.17 0.11 0.04 0.04 0.03 0.06 0.03 0.05 0.01
0.00 0.00 0.00 0.00 0.00 0.00 0.00 0.00 0.00 0.00 0.00 0.00 0.00 0.01 0.02 0.10 0.32 0.11 0.02 0.01 0.01 0.01 0.22 0.25 0.08 0.07 0.02 0.03 0.17 0.12 0.13 0.09 0.10 0.10 0.07 0.06 0.04 0.01 0.01 0.00 0.00 0.01 0.01 0.00
0.00 0.00 0.00 0.00 0.00 0.00 0.00 0.00 0.00 0.00 0.00 0.00 0.00 0.00 0.05 0.17 0.12 0.07 0.02 0.03 0.05 0.03 0.11 0.37 0.19 0.31 0.51 0.74 0.78 0.57 0.32 0.14 0.10 0.03 0.02 0.08 0.05 0.11 0.08 0.02 0.06 0.04 0.01 0.02
0.00 0.00 0.00 0.00 0.00 0.00 0.00 0.00 0.00 0.00 0.00 0.00 0.00 0.00 0.00 0.01 0.03 0.03 0.01 0.02 0.02 0.01 0.02 0.21 0.18 0.47 1.14 1.81 1.71 1.56 1.01 0.64 0.35 0.13 0.19 0.16 0.15 0.21 0.22 0.36 0.42 0.03 0.05 0.03
0.00 0.00 0.00 0.00 0.00 0.00 0.00 0.00 0.00 0.00 0.00 0.01 0.00 0.00 0.01 0.01 0.02 0.02 0.01 0.02 0.00 0.00 0.00 0.12 0.23 0.43 0.72 1.23 0.83 1.29 1.04 0.82 0.94 0.92 0.41 0.35 0.41 0.28 0.18 0.20 0.40 0.05 0.09 0.05
0.00 0.00 0.00 0.00 0.00 0.00 0.00 0.00 0.00 0.00 0.00 0.00 0.00 0.00 0.03 0.07 0.04 0.19 0.12 0.04 0.06 0.03 0.02 0.02 0.14 0.43 0.50 0.37 0.22 0.33 0.49 0.58 0.95 0.65 0.25 0.25 0.26 0.23 0.12 0.12 0.07 0.03 0.03 0.08
0.00 0.00 0.00 0.00 0.00 0.00 0.00 0.00 0.00 0.00 0.00 0.00 0.00 0.00 0.02 0.16 0.21 0.10 0.23 0.18 0.13 0.10 0.03 0.03 0.06 0.10 0.26 0.42 0.17 0.23 0.23 0.21 0.46 0.27 0.23 0.10 0.14 0.18 0.09 0.05 0.07 0.02 0.04 0.06
0.00 0.00 0.00 0.00 0.00 0.00 0.00 0.00 0.00 0.00 0.00 0.00 0.00 0.00 0.02 0.13 0.23 0.04 0.17 0.37 0.13 0.09 0.01 0.02 0.04 0.08 0.14 0.11 0.11 0.16 0.23 0.17 0.24 0.26 0.28 0.21 0.17 0.19 0.17 0.13 0.05 0.01 0.06 0.02
0.00 0.00 0.00 0.00 0.00 0.00 0.00 0.00 0.00 0.00 0.00 0.00 0.00 0.03 0.01 0.05 0.06 0.13 0.39 0.39 0.09 0.07 0.00 0.00 0.01 0.06 0.11 0.11 0.16 0.20 0.11 0.06 0.12 0.21 0.33 0.52 0.23 0.16 0.15 0.14 0.05 0.02 0.05 0.06
0.00 0.00 0.00 0.00 0.00 0.00 0.00 0.00 0.00 0.00 0.00 0.00 0.00 0.00 0.01 0.05 0.27 0.14 0.09 0.04 0.06 0.06 0.00 0.00 0.01 0.03 0.08 0.11 0.12 0.22 0.19 0.11 0.17 0.21 0.16 0.28 0.22 0.15 0.05 0.05 0.09 0.03 0.04 0.07
0.00 0.00 0.00 0.00 0.00 0.00 0.00 0.00 0.00 0.00 0.00 0.00 0.00 0.01 0.02 0.01 0.08 0.13 0.01 0.03 0.05 0.09 0.04 0.01 0.00 0.01 0.04 0.10 0.13 0.18 0.18 0.17 0.15 0.14 0.07 0.21 0.24 0.08 0.05 0.02 0.10 0.13 0.06 0.03
0.00 0.00 0.00 0.00 0.00 0.00 0.00 0.00 0.00 0.00 0.00 0.00 0.00 0.01 0.02 0.13 0.11 0.06 0.01 0.05 0.12 0.11 0.07 0.05 0.03 0.04 0.04 0.09 0.15 0.22 0.22 0.17 0.17 0.12 0.08 0.16 0.32 0.19 0.09 0.09 0.08 0.12 0.16 0.05
0.00 0.00 0.00 0.00 0.00 0.00 0.00 0.00 0.00 0.00 0.00 0.00 0.00 0.00 0.00 0.14 0.22 0.01 0.02 0.06 0.10 0.04 0.02 0.04 0.09 0.11 0.12 0.08 0.13 0.19 0.21 0.15 0.08 0.06 0.06 0.13 0.28 0.27 0.31 0.28 0.18 0.30 0.23 0.13
0.00 0.00 0.00 0.00 0.00 0.00 0.00 0.00 0.00 0.00 0.00 0.00 0.00 0.00 0.01 0.05 0.06 0.06 0.02 0.03 0.05 0.04 0.03 0.04 0.06 0.09 0.14 0.07 0.06 0.11 0.16 0.24 0.17 0.09 0.08 0.07 0.08 0.10 0.14 0.13 0.12 0.24 0.19 0.38
0.00 0.00 0.00 0.00 0.00 0.00 0.00 0.00 0.00 0.00 0.00 0.00 0.00 0.02 0.07 0.10 0.30 0.23 0.07 0.06 0.04 0.00 0.00 0.01 0.02 0.02 0.06 0.10 0.10 0.08 0.13 0.20 0.31 0.24 0.23 0.23 0.15 0.10 0.09 0.14 0.11 0.04 0.10 0.23
0.00 0.00 0.00 0.00 0.00 0.00 0.00 0.00 0.00 0.00 0.00 0.00 0.00 0.02 0.05 0.07 0.24 0.28 0.10 0.03 0.02 0.01 0.00 0.00 0.00 0.01 0.01 0.01 0.03 0.12 0.10 0.12 0.18 0.34 0.35 0.30 0.20 0.23 0.18 0.14 0.09 0.07 0.08 0.11
0.00 0.00 0.00 0.00 0.00 0.00 0.00 0.00 0.00 0.00 0.01 0.02 0.02 0.04 0.03 0.04 0.07 0.07 0.03 0.01 0.01 0.02 0.00 0.00 0.00 0.01 0.01 0.01 0.01 0.03 0.04 0.13 0.23 0.24 0.29 0.63 0.68 0.48 0.44 0.28 0.20 0.22 0.21 0.18
0.00 0.00 0.00 0.00 0.00 0.00 0.00 0.00 0.00 0.00 0.01 0.04 0.04 0.07 0.07 0.09 0.18 0.07 0.08 0.09 0.05 0.01 0.01 0.00 0.00 0.00 0.00 0.00 0.00 0.00 0.00 0.05 0.26 0.27 0.43 0.55 0.58 0.53 1.13 1.09 0.66 0.61 0.46 0.34
0.00 0.00 0.00 0.00 0.00 0.00 0.00 0.00 0.00 0.01 0.03 0.02 0.04 0.05 0.08 0.06 0.07 0.03 0.09 0.05 0.03 0.00 0.00 0.00 0.00 0.00 0.00 0.00 0.00 0.00 0.00 0.01 0.06 0.09 0.41 0.42 0.31 0.39 0.49 0.96 1.35 1.51 1.40 0.91
0.00 0.00 0.00 0.00 0.00 0.01 0.00 0.00 0.01 0.04 0.01 0.00 0.00 0.00 0.00 0.00 0.00 0.00 0.00 0.00 0.00 0.00 0.00 0.00 0.00 0.00 0.00 0.00 0.00 0.00 0.00 0.00 0.00 0.00 0.05 0.14 0.19 0.18 0.25 0.59 0.89 1.25 2.03 3.33
0.00 0.00 0.00 0.00 0.00 0.00 0.00 0.00 0.00 0.00 0.00 0.00 0.00 0.00 0.00 0.00 0.00 0.00 0.00 0.00 0.00 0.00 0.00 0.00 0.00 0.00 0.00 0.00 0.00 0.00 0.00 0.00 0.00 0.00 0.00 0.02 0.09 0.12 0.19 0.32 0.73 1.16 1.48 2.60
0.00 0.00 0.00 0.00 0.00 0.00 0.00 0.00 0.00 0.00 0.00 0.00 0.00 0.00 0.00 0.00 0.00 0.00 0.00 0.00 0.00 0.00 0.00 0.00 0.00 0.00 0.00 0.00 0.00 0.00 0.00 0.00 0.00 0.00 0.00 0.00 0.02 0.12 0.19 0.32 0.52 0.99 1.40 2.18
0.00 0.00 0.00 0.00 0.00 0.00 0.00 0.00 0.00 0.00 0.00 0.00 0.00 0.00 0.00 0.00 0.00 0.00 0.00 0.00 0.00 0.00 0.00 0.00 0.00 0.00 0.00 0.00 0.00 0.00 0.00 0.00 0.00 0.00 0.00 0.00 0.02 0.03 0.40 0.73 1.09 1.21 1.47 1.87
0.00 0.00 0.00 0.00 0.00 0.00 0.00 0.00 0.00 0.00 0.00 0.00 0.00 0.00 0.00 0.00 0.00 0.00 0.00 0.00 0.00 0.00 0.00 0.00 0.00 0.00 0.00 0.00 0.00 0.00 0.00 0.00 0.00 0.00 0.00 0.00 0.00 0.02 0.07 0.17 0.33 0.81 1.60 2.00